Regional Weather Roundup
Issued by NWS

Home | Current Version | Previous Version | Graphics & Text | Print | Product List | Glossary On
Versions: 1 2 3 4 5 6 7 8 9 10 11 12 13 14 15 16 17 18 19 20 21 22 23 24 25 26 27 28 29 30 31 32 33 34 35 36 37 38 39 40 41 42 43 44 45 46 47 48 49 50
088
ASUS44 KMEG 201710
RWRTN
TENNESSEE HOURLY STATE WEATHER ROUNDUP
NATIONAL WEATHER SERVICE MEMPHIS TN
1100 AM CST FRI JAN 20 2017

TNZ002-004-019-021-049-052-054-088>092-201800-
WEST TENNESSEE

CITY           SKY/WX    TMP DP  RH WIND       PRES   REMARKS
MEMPHIS INTL   CLOUDY    60  56  86 S14       29.75F
NWS MEMPHIS      N/A     59 N/A N/A MISG        N/A
JACKSON        CLOUDY    60  56  86 S15       29.77F
UNION CITY     CLOUDY    57  57 100 S13       29.73F
PARIS          CLOUDY    55  54  94 CALM      29.77F
HUNTINGDON     CLOUDY    59  57  94 S7        29.76F
$$

TNZ008-025-027-028-033-062-065-066-201800-
NORTH MIDDLE TENNESSEE

CITY           SKY/WX    TMP DP  RH WIND       PRES   REMARKS
NASHVILLE      PTSUNNY   63  54  72 SW9       29.82S
PORTLAND       CLOUDY    59  55  88 S7        29.81S
CLARKSVILLE    CLOUDY    60  53  77 S10       29.78F
SMYRNA         MOSUNNY   64  55  72 SW10      29.83S
GALLATIN       CLOUDY    61  55  82 VRB7      29.84F
CROSSVILLE     CLOUDY    58  50  75 SW10G17   29.85F
$$

TNZ061-075-076-078-094-096-097-201800-
SOUTH MIDDLE TENNESSEE

CITY           SKY/WX    TMP DP  RH WIND       PRES   REMARKS
TULLAHOMA      PTSUNNY   63  54  72 S9        29.85F
WINCHESTER     PTSUNNY   63  54  72 SW8       29.85F
MCMINNVILLE    PTSUNNY   63  54  72 SW10      29.85R
COLUMBIA       PTSUNNY   64  64 100 S13       29.80F
SHELBYVILLE    MOSUNNY   64  55  72 SW12      29.83F
$$

TNZ017-018-042-046-047-201800-
NORTHEAST TENNESSEE

CITY           SKY/WX    TMP DP  RH WIND       PRES   REMARKS
TRI CITIES     CLOUDY    58  55  90 CALM      29.86F
ELIZABETHTON   CLOUDY    57  54  88 CALM      29.86F
$$

TNZ012-013-036-069-073-074-201800-
CENTRAL EAST TENNESSEE

CITY           SKY/WX    TMP DP  RH WIND       PRES   REMARKS
KNOXVILLE      PTSUNNY   64  57  78 SW15      29.84F
OAK RIDGE      CLOUDY    59  56  89 CALM      29.86F
GATLINBURG     PTSUNNY   66  55  68 W8        29.84F
MORRISTOWN     CLOUDY    63  57  82 W8G16     29.84F
JACKSBORO      CLOUDY    59  55  88 CALM      29.87S
$$

TNZ083-085-099-201800-
SOUTHEAST TENNESSEE

CITY           SKY/WX    TMP DP  RH WIND       PRES   REMARKS
CHATTANOOGA    PTSUNNY   66  54  65 SW10      29.86S
$$

SKY/WX REPORTED AS FAIR MEANS FEW OR NO CLOUDS BELOW
12 THOUSAND FEET.





USA.gov is the U.S. government's official web portal to all federal, state and local government web resources and services.